timestamp,surface_pressure_avg,surface_temp_avg,battery_voltage,lat,long
2022-06-21 00:09:00+00:00,206.3648,13.3,12.01,47.84626,-54.09684
2022-06-21 00:19:01+00:00,207.3015,13.2,12.01,47.84626,-54.09684
2022-06-21 00:29:01+00:00,215.6798,13.12,12.01,47.84626,-54.09684
2022-06-21 00:39:01+00:00,215.4298,13.2,12.01,47.84626,-54.09684
2022-06-21 00:49:01+00:00,214.3315,13.0,12.01,47.84626,-54.09684
2022-06-21 00:59:01+00:00,219.2314,12.9,12.01,47.84626,-54.09684
2022-06-21 01:09:01+00:00,225.0231,12.86,12.01,47.84626,-54.09684
2022-06-21 01:19:01+00:00,226.4498,12.8,12.01,47.84626,-54.09684
2022-06-21 01:29:01+00:00,225.3364,12.6,12.01,47.84626,-54.09684
2022-06-21 01:39:01+00:00,228.3964,12.4,12.01,47.84626,-54.09684
2022-06-21 01:49:01+00:00,235.3681,12.2,12.01,47.84626,-54.09684
2022-06-21 01:59:01+00:00,243.1614,12.2,12.01,47.84626,-54.09684
2022-06-21 02:09:01+00:00,253.1814,12.1,12.01,47.84626,-54.09684
2022-06-21 02:19:00+00:00,262.1947,12.0,12.01,47.84626,-54.09684
2022-06-21 02:29:00+00:00,267.3797,12.1,12.01,47.84626,-54.09684
2022-06-21 02:39:00+00:00,275.1647,12.19,12.01,47.84626,-54.09684
2022-06-21 02:49:00+00:00,286.558,12.2,12.01,47.84626,-54.09684
2022-06-21 02:59:00+00:00,291.113,12.1,12.01,47.84626,-54.09684
2022-06-21 03:09:00+00:00,295.7164,12.0,12.01,47.84626,-54.09684
2022-06-21 03:19:01+00:00,305.698,11.9,11.93,47.84626,-54.09684
2022-06-21 03:29:01+00:00,312.783,11.89,11.93,47.84626,-54.09684
2022-06-21 03:39:01+00:00,310.4713,11.8,11.93,47.84626,-54.09684
2022-06-21 03:49:01+00:00,318.9913,11.71,11.93,47.84626,-54.09684
2022-06-21 03:59:01+00:00,332.5563,11.7,11.93,47.84626,-54.09684
2022-06-21 04:09:01+00:00,329.8513,11.6,11.93,47.84626,-54.09684
2022-06-21 04:19:00+00:00,322.293,11.48,11.93,47.84626,-54.09684
2022-06-21 04:29:00+00:00,331.478,11.4,11.93,47.84626,-54.09684
2022-06-21 04:39:00+00:00,337.4863,11.4,11.93,47.84626,-54.09684
2022-06-21 04:49:00+00:00,331.6296,11.38,11.93,47.84626,-54.09684
2022-06-21 04:59:00+00:00,328.6330000000001,11.2,11.93,47.84626,-54.09684
2022-06-21 05:09:00+00:00,338.7214,11.1,11.93,47.84626,-54.09684
2022-06-21 05:19:01+00:00,343.3929,11.1,11.93,47.84626,-54.09684
2022-06-21 05:29:01+00:00,338.2346,11.1,11.93,47.84626,-54.09684
2022-06-21 05:39:01+00:00,340.3896,11.0,11.93,47.84626,-54.09684
2022-06-21 05:49:01+00:00,341.5463,11.05,11.93,47.84626,-54.09684
2022-06-21 05:59:01+00:00,337.4296,11.08,11.93,47.84626,-54.09684
2022-06-21 06:09:01+00:00,336.17800000000005,11.0,11.93,47.84626,-54.09684
2022-06-21 06:19:00+00:00,336.788,11.0,11.93,47.84626,-54.09684
2022-06-21 06:29:00+00:00,333.3629,11.1,11.93,47.84626,-54.09684
2022-06-21 06:39:00+00:00,330.8463,11.18,11.93,47.84626,-54.09684
2022-06-21 06:49:00+00:00,330.8563,11.1,11.93,47.84626,-54.09684
2022-06-21 06:59:00+00:00,330.1913,11.19,11.93,47.84626,-54.09684
2022-06-21 07:09:00+00:00,316.8963,11.2,11.93,47.84626,-54.09684
2022-06-21 07:19:01+00:00,309.5697,11.24,11.93,47.84626,-54.09684
2022-06-21 07:29:01+00:00,303.703,11.28,11.93,47.84626,-54.09684
2022-06-21 07:39:01+00:00,294.1147,11.35,11.93,47.84626,-54.09684
2022-06-21 07:49:01+00:00,287.7964,11.34,11.93,47.84626,-54.09684
2022-06-21 07:59:01+00:00,284.0164,11.42,11.93,47.84626,-54.09684
2022-06-21 08:09:01+00:00,275.1814,11.58,11.93,47.84626,-54.09684
2022-06-21 08:19:00+00:00,260.8031,11.69,11.93,47.84626,-54.09684
2022-06-21 08:29:00+00:00,258.7348,11.76,11.93,47.84626,-54.09684
2022-06-21 08:39:00+00:00,255.4064,12.09,11.93,47.84626,-54.09684
2022-06-21 08:49:00+00:00,242.9214,12.34,11.93,47.84626,-54.09684
2022-06-21 08:59:00+00:00,234.6164,12.49,11.93,47.84626,-54.09684
2022-06-21 09:09:00+00:00,235.8364,12.5,11.93,47.84626,-54.09684
2022-06-21 09:19:00+00:00,229.0048,12.5,11.93,47.84626,-54.09684
2022-06-21 09:29:00+00:00,223.5664,12.5,11.93,47.84626,-54.09684
2022-06-21 09:39:00+00:00,223.5881,12.5,11.93,47.84626,-54.09684
2022-06-21 09:49:00+00:00,216.2781,12.47,11.93,47.84626,-54.09684
2022-06-21 09:59:00+00:00,206.9448,12.57,11.93,47.84626,-54.09684
2022-06-21 10:09:00+00:00,208.7714,12.4,11.93,47.84626,-54.09684
2022-06-21 10:19:01+00:00,211.0898,12.0,11.93,47.84626,-54.09684
2022-06-21 10:29:01+00:00,201.2498,12.1,11.93,47.84626,-54.09684
2022-06-21 10:39:01+00:00,198.1165,12.19,11.93,47.84626,-54.09684
2022-06-21 10:49:01+00:00,202.9764,12.1,11.93,47.84626,-54.09684
2022-06-21 10:59:01+00:00,202.3381,11.9,11.93,47.84626,-54.09684
2022-06-21 11:09:01+00:00,202.2948,11.8,11.93,47.84626,-54.09684
2022-06-21 11:19:00+00:00,207.8448,11.9,11.93,47.84626,-54.09684
2022-06-21 11:29:00+00:00,213.3948,11.94,11.93,47.84626,-54.09684
2022-06-21 11:39:00+00:00,210.6464,12.2,11.93,47.84626,-54.09684
2022-06-21 11:49:00+00:00,205.5614,12.22,11.93,47.84626,-54.09684
2022-06-21 11:59:00+00:00,208.8948,12.35,11.93,47.84626,-54.09684
2022-06-21 12:09:00+00:00,214.0131,12.54,11.93,47.84626,-54.09684
2022-06-21 12:19:00+00:00,210.8864,12.6,12.01,47.84626,-54.09684
2022-06-21 12:29:00+00:00,209.8448,12.71,12.01,47.84626,-54.09684
2022-06-21 12:39:00+00:00,216.2447,12.8,12.01,47.84626,-54.09684
2022-06-21 12:49:00+00:00,219.9114,12.7,12.01,47.84626,-54.09684
2022-06-21 12:59:00+00:00,219.6981,12.6,12.01,47.84626,-54.09684
2022-06-21 13:09:00+00:00,218.5681,12.4,12.01,47.84626,-54.09684
2022-06-21 13:19:00+00:00,220.8898,12.41,12.09,47.84626,-54.09684
2022-06-21 13:29:00+00:00,222.6881,12.4,12.09,47.84626,-54.09684
2022-06-21 13:39:00+00:00,224.7998,12.39,12.09,47.84626,-54.09684
2022-06-21 13:49:00+00:00,226.0448,12.4,12.09,47.84626,-54.09684
2022-06-21 13:59:00+00:00,229.1181,12.67,12.09,47.84626,-54.09684
2022-06-21 14:09:00+00:00,233.3764,12.7,12.09,47.84626,-54.09684
2022-06-21 14:19:00+00:00,235.5031,12.7,12.17,47.84626,-54.09684
2022-06-21 14:29:00+00:00,238.4814,12.7,12.17,47.84626,-54.09684
2022-06-21 14:39:00+00:00,241.2897,12.5,12.17,47.84626,-54.09684
2022-06-21 14:49:00+00:00,246.1948,12.46,12.17,47.84626,-54.09684
2022-06-21 14:59:00+00:00,247.0064,12.6,12.17,47.84626,-54.09684
2022-06-21 15:09:00+00:00,251.1565,12.5,12.17,47.84626,-54.09684
2022-06-21 15:19:00+00:00,258.5431,12.6,12.25,47.84626,-54.09684
2022-06-21 15:29:00+00:00,271.9547,12.67,12.25,47.84626,-54.09684
2022-06-21 15:39:00+00:00,280.8597,12.6,12.25,47.84626,-54.09684
2022-06-21 15:49:00+00:00,290.238,12.24,12.25,47.84626,-54.09684
2022-06-21 15:59:00+00:00,293.7131,11.8,12.25,47.84626,-54.09684
2022-06-21 16:09:00+00:00,299.1464,11.99,12.25,47.84626,-54.09684
2022-06-21 16:19:00+00:00,303.5881,11.88,12.25,47.84626,-54.09684
2022-06-21 16:29:00+00:00,307.228,11.8,12.25,47.84626,-54.09684
2022-06-21 16:39:00+00:00,306.8597,11.82,12.25,47.84626,-54.09684
2022-06-21 16:49:00+00:00,303.7297,11.9,12.25,47.84626,-54.09684
2022-06-21 16:59:00+00:00,303.1097,11.93,12.25,47.84626,-54.09684
2022-06-21 17:09:00+00:00,307.103,11.98,12.25,47.84626,-54.09684
2022-06-21 17:19:00+00:00,307.9947,12.15,12.17,47.84626,-54.09684
2022-06-21 17:29:00+00:00,309.8964,12.14,12.17,47.84626,-54.09684
2022-06-21 17:39:00+00:00,314.6997,12.1,12.17,47.84626,-54.09684
2022-06-21 17:49:00+00:00,320.4913,12.1,12.17,47.84626,-54.09684
2022-06-21 17:59:00+00:00,320.5179,12.0,12.17,47.84626,-54.09684
2022-06-21 18:09:00+00:00,318.1196,11.8,12.17,47.84626,-54.09684
2022-06-21 18:19:00+00:00,315.8914,11.95,12.09,47.84626,-54.09684
2022-06-21 18:29:00+00:00,315.4464,12.07,12.09,47.84626,-54.09684
2022-06-21 18:39:00+00:00,316.2047,12.32,12.09,47.84626,-54.09684
2022-06-21 18:49:00+00:00,314.3629,12.46,12.09,47.84626,-54.09684
2022-06-21 18:59:00+00:00,317.058,12.01,12.09,47.84626,-54.09684
2022-06-21 19:09:00+00:00,315.238,12.06,12.09,47.84626,-54.09684
2022-06-21 19:19:00+00:00,309.3047,12.27,12.09,47.84626,-54.09684
2022-06-21 19:29:00+00:00,305.5164,12.75,12.09,47.84626,-54.09684
2022-06-21 19:39:00+00:00,300.038,13.0,12.09,47.84626,-54.09684
2022-06-21 19:49:00+00:00,299.5464,13.28,12.09,47.84626,-54.09684
2022-06-21 19:59:00+00:00,290.5063,13.49,12.09,47.84626,-54.09684
2022-06-21 20:09:00+00:00,285.3614,13.59,12.09,47.84626,-54.09684
2022-06-21 20:19:00+00:00,278.4865,13.59,12.09,47.84626,-54.09684
2022-06-21 20:29:00+00:00,275.2714,13.64,12.09,47.84626,-54.09684
2022-06-21 20:39:00+00:00,268.9814,13.8,12.09,47.84626,-54.09684
2022-06-21 20:49:00+00:00,258.3864,14.04,12.09,47.84626,-54.09684
2022-06-21 20:59:00+00:00,250.0797,14.13,12.09,47.84626,-54.09684
2022-06-21 21:09:00+00:00,242.1764,14.17,12.09,47.84626,-54.09684
2022-06-21 21:19:01+00:00,235.0797,14.15,12.09,47.84626,-54.09684
2022-06-21 21:29:01+00:00,230.3914,14.08,12.09,47.84626,-54.09684
2022-06-21 21:39:01+00:00,227.1048,14.09,12.09,47.84626,-54.09684
2022-06-21 21:49:01+00:00,224.7864,14.1,12.09,47.84626,-54.09684
2022-06-21 21:59:01+00:00,223.6381,14.0,12.09,47.84626,-54.09684
2022-06-21 22:09:01+00:00,220.2964,14.09,12.09,47.84626,-54.09684
2022-06-21 22:19:01+00:00,221.1431,14.2,12.01,47.84626,-54.09684
2022-06-21 22:29:01+00:00,218.3298,14.2,12.01,47.84626,-54.09684
2022-06-21 22:39:01+00:00,211.9214,14.32,12.01,47.84626,-54.09684
2022-06-21 22:49:01+00:00,205.3398,14.3,12.01,47.84626,-54.09684
2022-06-21 22:59:01+00:00,203.8814,14.36,12.01,47.84626,-54.09684
2022-06-21 23:09:01+00:00,202.3498,14.39,12.01,47.84626,-54.09684
2022-06-21 23:19:01+00:00,194.0298,14.3,12.01,47.84626,-54.09684
2022-06-21 23:29:01+00:00,190.4698,14.2,12.01,47.84626,-54.09684
2022-06-21 23:39:01+00:00,197.9148,14.0,12.01,47.84626,-54.09684
2022-06-21 23:49:01+00:00,202.8098,14.06,12.01,47.84626,-54.09684
2022-06-21 23:59:01+00:00,201.3198,14.1,12.01,47.84626,-54.09684
